User: anonymous   Login
Location: Peebles
(55.6412°N, 3.1714°W)
Time: 12:56:08
(UTC+00:00)
Language:

USA 215 - Orbit

View from above orbital plane
View from above orbital plane
View from above satellite
View from above satellite

Ground track
Ground track

The orbit data is extracted from the following two-line orbital elements,

1 37162U 10046A   21324.01175057 0.00000000  00000-0  00000-0 0    01
2 37162 122.9957 152.9764 0006722  72.0767 287.9232 13.41444442    00
Epoch (UTC): 20 November 2021 00:16:55
Eccentricity: 0.0006722
inclination: 122.9957°
perigee height: 1099 km
apogee height: 1109 km
right ascension of ascending node: 152.9764°
argument of perigee: 72.0767°
revolutions per day: 13.41444442
mean anomaly at epoch: 287.9232°
orbit number at epoch: 0

The dashed part of the orbit path shows where the satellite is in the earth's shadow,  

DLR